[[{"header":{"parameterUnit":"m.s-1","parameterCategory":1,"la1":30.2991,"la2":30.254,"lo1":-89.0895,"lo2":-89.0444,"dy":0.0017,"dx":0.0017,"nx":28,"ny":28,"refTime":"2025-04-12T03:00:00:Z","depth":0,"parameterNumber":2,"parameterNumberName":"U-component_of_WINDS"},"data":[0,0,0,0,0,0,0,0,0,0,0,0,0,0,0,0,0,0,0,0,0,0,0,0,0,0,0,0,0,0,0,0,0,0,0,0,0,0,0,0,0,0,0,0,0,0,0,0,0,0,0,0,0,0,0,0,0,0,1.5627,1.5627,0,1.5639,1.5639,1.5639,1.5618,1.5618,1.5617,1.5616,1.563,1.5631,1.5632,0,0,0,0,0,0,0,0,0,0,0,0,0,1.5588,1.5589,1.5627,1.5627,1.5627,1.5639,1.5639,1.5639,1.5619,1.5618,1.5617,1.5616,1.563,1.5631,1.5632,0,0,0,0,0,0,0,0,0,0,0,0,0,1.5603,1.5589,1.5626,1.5618,1.5617,1.5639,1.5639,1.5639,1.5619,1.5618,1.5617,1.5616,1.563,1.5631,1.5633,1.5663,0,0,1.5637,1.5638,0,0,0,0,0,0,0,0,1.5602,1.5605,1.5619,1.5619,1.5618,1.5626,1.563,1.5647,1.5619,1.5618,1.5616,1.5615,1.563,1.5631,1.5636,1.5664,1.5665,1.5637,1.5638,1.5639,1.5639,0,0,0,0,0,0,0,1.5601,1.5604,1.5631,1.5619,1.5619,1.5615,1.5615,1.5634,1.563,1.5618,1.5617,1.5618,1.5629,1.5634,1.5636,1.5665,1.5637,1.5639,1.564,1.564,1.5721,1.5722,0,0,0,0,0,0,1.5601,1.5603,1.5631,1.5632,1.5607,1.5616,1.5617,1.5624,1.563,1.5629,1.5619,1.5617,1.5632,1.5634,1.5636,1.5674,1.5639,1.564,1.5641,1.572,1.5721,1.5722,0,0,0,0,0,0,1.56,1.5604,1.5631,1.5617,1.562,1.5618,1.5626,1.5625,1.563,1.563,1.563,1.5625,1.5632,1.5634,1.5657,1.5674,1.5641,1.5643,1.5718,1.572,1.5722,1.5748,0,0,0,0,0,0,1.5599,1.5603,1.5614,1.5617,1.5621,1.565,1.5627,1.5626,1.5633,1.5631,1.5636,1.5635,1.5631,1.5655,1.5659,1.5675,1.5644,1.5717,1.5719,1.5721,1.5745,1.575,1.5754,0,0,0,0,0,1.5598,1.5621,1.5615,1.5618,1.5634,1.5651,1.5653,1.5647,1.5634,1.5646,1.5646,1.5635,1.5672,1.5657,1.5661,1.5679,1.5715,1.5718,1.5721,1.5743,1.5749,1.5754,0,0,0,0,0,0,1.562,1.5621,1.5614,1.5639,1.5645,1.5647,1.5661,1.5653,1.5663,1.5661,1.5653,1.5655,1.5679,1.5682,1.5666,1.571,1.5692,1.5695,1.5707,1.5713,1.5717,1.5716,1.5645,0,0,0,0,0,1.5627,1.564,1.5641,1.5663,1.5666,1.5664,1.5671,1.5666,1.5672,1.5674,1.5676,1.5683,1.5696,1.5705,1.5717,1.5746,1.5748,1.576,1.5765,1.5769,1.5772,1.5789,1.5795,1.5731,1.5731,1.5731,0,0,1.5643,1.5646,1.5654,1.5667,1.5671,1.5686,1.5666,1.5681,1.5692,1.5677,1.5698,1.57,1.5708,1.5734,1.5746,1.5737,1.579,1.5772,1.5775,1.5776,1.5792,1.5798,1.5804,1.5733,1.5733,1.5733,0,0,1.5679,1.5682,1.5701,1.5706,1.5713,1.5711,1.5716,1.572,1.5721,1.5742,1.5732,1.5745,1.5767,1.5774,1.578,1.5821,1.5812,1.5826,1.5849,1.5865,1.587,1.5875,1.589,1.5896,1.5829,1.5829,1.5829,0,1.5698,1.5718,1.5712,1.5729,1.5735,1.5723,1.5743,1.5748,1.5758,1.5764,1.5753,1.5783,1.5787,1.5815,1.5825,1.5831,1.5837,1.5824,1.587,1.5875,1.5879,1.5893,1.5899,1.583,1.583,1.583,1.583,0,1.5742,1.5756,1.5771,1.5781,1.579,1.5808,1.5806,1.5816,1.5811,1.5811,1.5834,1.5839,1.5852,1.5859,1.5854,1.5888,1.5882,1.5871,1.5852,1.5886,1.59,1.5905,1.5833,1.5832,1.5832,1.5831,0,0,1.579,1.5798,1.5803,1.5809,1.5816,1.5828,1.5847,1.586,1.5868,1.5877,1.5893,1.5914,1.5904,1.5911,1.5908,1.5923,1.5956,1.591,1.591,1.5919,1.5995,1.6002,1.6009,1.5951,1.5952,1.5953,1.5994,0,1.5826,1.5857,1.5853,1.5883,1.5897,1.5887,1.5903,1.5911,1.5912,1.5925,1.5927,1.5942,1.5928,1.5932,1.5947,1.5949,1.5971,1.5946,1.5966,1.5967,1.5964,1.6016,1.6023,1.6062,1.5999,1.6,1.6001,0,1.5871,1.5881,1.5913,1.592,1.5926,1.5941,1.5953,1.5966,1.5975,1.5975,1.5984,1.5978,1.5999,1.5981,1.6009,1.5992,1.6001,1.6004,1.6005,1.6006,1.5985,1.6018,1.6074,1.608,1.6009,1.6008,1.6008,0,1.5903,1.5925,1.5947,1.5952,1.5961,1.5972,1.5976,1.5984,1.5993,1.6004,1.601,1.6024,1.6032,1.6044,1.6043,1.603,1.6073,1.6054,1.6074,1.6074,1.6082,1.6081,1.614,1.6089,1.6089,1.6088,1.6088,0,1.5943,1.5963,1.5962,1.5975,1.5998,1.5994,1.6017,1.6021,1.6028,1.6043,1.6036,1.605,1.6048,1.6063,1.6063,1.6087,1.6091,1.6092,1.6092,1.6093,1.6093,1.6097,1.6095,1.609,1.609,1.6089,1.6089,0,1.5982,1.5982,1.6005,1.6012,1.6015,1.6031,1.6038,1.6051,1.6053,1.6072,1.6077,1.6079,1.6097,1.6098,1.6118,1.6118,1.6148,1.6144,1.6144,1.6144,1.6163,1.6162,1.6227,1.6235,1.6179,1.6179,1.618,0,1.6007,1.6022,1.6031,1.604,1.6045,1.6061,1.607,1.6068,1.6078,1.6091,1.6103,1.612,1.6133,1.6163,1.6167,1.6183,1.618,1.6202,1.6182,1.6183,1.6181,1.618,1.6182,1.6205,1.6206,1.6207,1.6207,0,1.6052,1.6051,1.6064,1.6078,1.609,1.6101,1.6111,1.6119,1.6119,1.6131,1.6149,1.6159,1.6181,1.6198,1.6214,1.622,1.6214,1.6214,1.6219,1.6219,1.6219,1.622,1.6154,1.6212,1.6211,1.6211,1.6211,1.621,1.6084,1.6098,1.6107,1.6122,1.613,1.614,1.6154,1.6158,1.6172,1.6189,1.6188,1.6208,1.6219,1.624,1.6247,1.6264,1.6257,1.6264,1.6266,1.6268,1.627,1.6217,1.6267,1.6267,1.6267,1.6267,1.6267,0,1.6129,1.6134,1.6149,1.6163,1.6176,1.617,1.6181,1.6193,1.621,1.6221,1.6235,1.6257,1.6274,1.6281,1.6298,1.6311,1.6309,1.6315,1.6314,1.6316,1.6276,1.6269,1.6317,1.6317,1.6317,1.6317,1.6317,1.6317,1.6153,1.6176,1.6177,1.6205,1.6211,1.623,1.6237,1.6247,1.6256,1.628,1.6295,1.6299,1.6309,1.6328,1.6344,1.6346,1.6353,1.6361,1.6361,1.6324,1.6318,1.6314,1.6307,1.6362,1.6362,1.64,1.64,1.6401]},{"header":{"parameterUnit":"m.s-1","parameterCategory":1,"la1":30.2991,"la2":30.254,"lo1":-89.0895,"lo2":-89.0444,"dy":0.0017,"dx":0.0017,"nx":28,"ny":28,"refTime":"2025-04-12T03:00:00:Z","depth":0,"parameterNumber":3,"parameterNumberName":"V-component_of_WINDS"},"data":[0,0,0,0,0,0,0,0,0,0,0,0,0,0,0,0,0,0,0,0,0,0,0,0,0,0,0,0,0,0,0,0,0,0,0,0,0,0,0,0,0,0,0,0,0,0,0,0,0,0,0,0,0,0,0,0,0,0,-2.8159,-2.816,0,-2.8191,-2.8191,-2.8191,-2.8211,-2.8211,-2.8211,-2.8211,-2.8242,-2.8242,-2.8243,0,0,0,0,0,0,0,0,0,0,0,0,0,-2.8113,-2.8114,-2.8159,-2.816,-2.816,-2.8191,-2.8191,-2.8191,-2.8211,-2.8211,-2.8211,-2.8211,-2.8241,-2.8242,-2.8243,0,0,0,0,0,0,0,0,0,0,0,0,0,-2.8138,-2.8114,-2.8159,-2.8173,-2.8175,-2.819,-2.8191,-2.8192,-2.8211,-2.8211,-2.8211,-2.8211,-2.8241,-2.8242,-2.8243,-2.8246,0,0,-2.8246,-2.8247,0,0,0,0,0,0,0,0,-2.8136,-2.8139,-2.8171,-2.8173,-2.8174,-2.8197,-2.8186,-2.821,-2.8211,-2.8197,-2.8211,-2.8212,-2.8226,-2.8229,-2.8234,-2.8247,-2.8249,-2.8246,-2.8247,-2.8247,-2.8248,0,0,0,0,0,0,0,-2.8134,-2.8138,-2.8172,-2.8171,-2.8173,-2.8177,-2.8181,-2.819,-2.821,-2.8198,-2.82,-2.8204,-2.8227,-2.8233,-2.8235,-2.8249,-2.8246,-2.8247,-2.8248,-2.8248,-2.8264,-2.8264,0,0,0,0,0,0,-2.8131,-2.8136,-2.8171,-2.8173,-2.8155,-2.8178,-2.8182,-2.819,-2.821,-2.8214,-2.8203,-2.8204,-2.8231,-2.8234,-2.8236,-2.824,-2.8247,-2.8248,-2.8249,-2.8265,-2.8264,-2.8264,0,0,0,0,0,0,-2.813,-2.8134,-2.8169,-2.8155,-2.816,-2.8179,-2.8187,-2.819,-2.8196,-2.8214,-2.8218,-2.8206,-2.8232,-2.8235,-2.8243,-2.8241,-2.8249,-2.825,-2.8265,-2.8264,-2.8264,-2.8248,0,0,0,0,0,0,-2.8128,-2.8133,-2.8135,-2.8155,-2.816,-2.8177,-2.8187,-2.8191,-2.8198,-2.8199,-2.8217,-2.822,-2.8232,-2.8241,-2.8244,-2.8243,-2.8251,-2.8265,-2.8265,-2.8264,-2.8249,-2.8247,-2.8246,0,0,0,0,0,-2.8127,-2.813,-2.8135,-2.8139,-2.8164,-2.8177,-2.818,-2.8194,-2.8198,-2.8199,-2.8211,-2.822,-2.8241,-2.8242,-2.8245,-2.8244,-2.8265,-2.8265,-2.8264,-2.8249,-2.8247,-2.8246,0,0,0,0,0,0,-2.8109,-2.8133,-2.8139,-2.8149,-2.8161,-2.818,-2.8183,-2.8191,-2.8202,-2.8203,-2.8219,-2.8222,-2.8229,-2.8237,-2.8238,-2.8247,-2.8254,-2.8254,-2.8241,-2.824,-2.8238,-2.8236,-2.8252,0,0,0,0,0,-2.8107,-2.8116,-2.8135,-2.8142,-2.8147,-2.8164,-2.817,-2.8179,-2.8192,-2.8197,-2.8209,-2.822,-2.8229,-2.8235,-2.8245,-2.825,-2.8253,-2.825,-2.8249,-2.8248,-2.8247,-2.8249,-2.8248,-2.8263,-2.8263,-2.8263,0,0,-2.8101,-2.8115,-2.812,-2.8139,-2.8149,-2.8157,-2.8168,-2.8177,-2.8182,-2.8198,-2.8207,-2.8216,-2.8229,-2.8236,-2.8239,-2.8243,-2.8244,-2.8247,-2.8246,-2.8247,-2.8249,-2.8247,-2.8246,-2.8262,-2.8262,-2.8262,0,0,-2.8096,-2.8108,-2.8114,-2.8123,-2.8139,-2.8149,-2.815,-2.8168,-2.8175,-2.8184,-2.8195,-2.8202,-2.8217,-2.8226,-2.8232,-2.8227,-2.8236,-2.823,-2.8222,-2.8224,-2.8222,-2.8221,-2.8218,-2.8217,-2.823,-2.823,-2.823,0,-2.8087,-2.8101,-2.8115,-2.8123,-2.813,-2.8144,-2.815,-2.8158,-2.8176,-2.818,-2.8184,-2.8202,-2.8213,-2.8221,-2.8219,-2.8224,-2.8225,-2.8228,-2.8221,-2.8221,-2.822,-2.8217,-2.8216,-2.8229,-2.8229,-2.8229,-2.8229,0,-2.8088,-2.8097,-2.81,-2.8116,-2.8124,-2.813,-2.8145,-2.815,-2.8158,-2.8168,-2.8175,-2.8188,-2.8199,-2.8202,-2.821,-2.821,-2.8212,-2.8219,-2.8226,-2.8217,-2.8215,-2.8214,-2.8228,-2.8228,-2.8228,-2.8229,0,0,-2.8074,-2.8097,-2.8098,-2.8105,-2.8121,-2.8128,-2.8134,-2.8146,-2.8149,-2.816,-2.8165,-2.8177,-2.8182,-2.8189,-2.8198,-2.82,-2.8193,-2.8206,-2.8206,-2.8202,-2.8192,-2.8187,-2.8186,-2.8199,-2.8199,-2.8199,-2.8191,0,-2.807,-2.8083,-2.8095,-2.8103,-2.811,-2.8123,-2.8128,-2.8138,-2.8147,-2.8153,-2.8163,-2.817,-2.8178,-2.8182,-2.8184,-2.8194,-2.8191,-2.8195,-2.8202,-2.8202,-2.8198,-2.8185,-2.8179,-2.8172,-2.819,-2.819,-2.819,0,-2.8068,-2.8078,-2.8086,-2.8101,-2.8104,-2.8109,-2.8119,-2.8126,-2.8136,-2.8142,-2.8149,-2.8159,-2.8164,-2.817,-2.8177,-2.8179,-2.8183,-2.8188,-2.8188,-2.8189,-2.8195,-2.8184,-2.817,-2.8168,-2.8189,-2.8189,-2.8189,0,-2.8056,-2.8071,-2.8077,-2.8083,-2.81,-2.8102,-2.811,-2.8121,-2.8126,-2.8135,-2.8138,-2.8147,-2.8152,-2.8158,-2.8169,-2.8173,-2.8174,-2.8182,-2.8178,-2.8178,-2.8178,-2.8178,-2.8163,-2.8181,-2.8181,-2.8181,-2.8181,0,-2.805,-2.8054,-2.8072,-2.8076,-2.808,-2.8093,-2.8097,-2.8105,-2.8114,-2.8119,-2.8131,-2.8135,-2.8149,-2.8154,-2.8163,-2.8166,-2.8168,-2.8173,-2.8175,-2.8171,-2.8171,-2.8174,-2.8174,-2.8181,-2.8181,-2.8181,-2.8181,0,-2.8037,-2.8049,-2.8057,-2.8072,-2.8076,-2.8078,-2.809,-2.8094,-2.8102,-2.8108,-2.811,-2.8123,-2.813,-2.8141,-2.8151,-2.8157,-2.8158,-2.8162,-2.8155,-2.8156,-2.8151,-2.8151,-2.8137,-2.8135,-2.8156,-2.8155,-2.8155,0,-2.8033,-2.8036,-2.8051,-2.8055,-2.8062,-2.8068,-2.8073,-2.8086,-2.809,-2.8102,-2.8103,-2.8111,-2.8117,-2.8127,-2.8137,-2.8144,-2.8148,-2.8142,-2.8149,-2.8145,-2.8146,-2.8146,-2.8145,-2.8141,-2.8141,-2.814,-2.814,0,-2.8023,-2.8029,-2.8036,-2.8044,-2.805,-2.8058,-2.8066,-2.8068,-2.8082,-2.8086,-2.8093,-2.8098,-2.8107,-2.8114,-2.8122,-2.8128,-2.8136,-2.8138,-2.8137,-2.8134,-2.8129,-2.813,-2.815,-2.8138,-2.8138,-2.8139,-2.8139,-2.8139,-2.8014,-2.8017,-2.8027,-2.8034,-2.8041,-2.8048,-2.8051,-2.806,-2.8066,-2.8074,-2.8081,-2.8087,-2.8095,-2.8107,-2.8113,-2.8116,-2.812,-2.812,-2.8119,-2.8119,-2.8117,-2.8128,-2.8118,-2.8118,-2.8118,-2.8118,-2.8118,0,-2.8004,-2.8011,-2.8017,-2.8028,-2.8032,-2.8039,-2.8048,-2.8051,-2.8056,-2.8064,-2.8069,-2.8076,-2.8082,-2.8092,-2.8098,-2.8099,-2.8103,-2.81,-2.81,-2.8101,-2.8114,-2.8113,-2.8097,-2.8097,-2.8097,-2.8097,-2.8097,-2.8097,-2.8,-2.8004,-2.801,-2.8017,-2.8024,-2.803,-2.8034,-2.8039,-2.8045,-2.8052,-2.8057,-2.8063,-2.8071,-2.8078,-2.8083,-2.8085,-2.8087,-2.8083,-2.8086,-2.8098,-2.81,-2.8102,-2.8102,-2.8083,-2.8083,-2.8073,-2.8073,-2.8073]}]]